Wind_Speed
42 42 42 42 42 41 37 32 30 31 31 31 32 33 33 34 34 34 32 31 30 28 27 27 27 26 25 25 24 23 22 20 19 18 17 16 15 14 14 13 12 12 12 11 11 11 10 10 10
44 44 45 45 46 43 38 33 32 32 33 34 35 35 34 34 34 33 32 31 29 29 29 28 28 27 27 26 25 24 23 22 21 20 18 17 16 16 15 14 13 13 13 12 12 11 11 11 11
47 47 48 49 48 44 38 35 34 35 35 36 36 36 35 34 33 33 32 31 30 30 30 29 29 28 28 27 26 25 24 23 22 21 20 18 17 16 15 15 14 14 13 13 12 12 11 11 11
50 51 52 52 49 43 40 38 38 38 38 38 38 38 37 35 34 33 32 32 31 31 30 30 30 30 29 28 27 26 25 24 23 22 21 19 18 17 17 16 15 15 14 14 13 12 12 12 12
52 54 55 54 50 44 41 41 41 40 40 39 39 38 38 36 35 34 33 33 32 32 32 31 31 31 30 30 29 28 26 25 25 23 22 21 19 18 18 17 16 16 15 15 14 13 13 12 12
55 56 57 55 50 46 44 43 44 43 42 41 41 40 39 37 36 35 34 34 34 33 33 32 32 32 32 31 30 29 28 27 26 24 23 22 20 19 19 18 17 17 16 15 14 14 13 13 13
57 58 59 55 52 49 46 45 45 45 44 43 43 42 41 39 38 37 36 35 35 34 34 33 33 32 32 32 31 31 29 28 27 25 24 23 21 20 19 19 18 17 17 16 15 15 14 14 14
58 60 60 58 54 49 46 47 47 47 47 45 45 44 42 40 39 38 37 37 36 36 35 35 34 33 32 32 32 32 31 29 28 26 25 24 22 21 21 20 19 18 18 17 16 16 15 15 15
59 63 62 57 54 50 48 49 48 49 49 48 47 46 43 42 41 40 38 37 37 36 36 35 35 34 33 33 33 32 32 31 29 27 26 25 24 23 22 21 20 19 19 18 17 16 16 16 16
61 64 61 55 54 52 51 51 51 51 52 51 49 48 46 45 43 41 39 38 37 37 36 35 35 35 34 34 33 33 32 32 31 29 28 26 25 24 23 22 21 20 19 18 18 17 17 17 17
62 63 59 56 55 55 54 54 53 54 54 52 50 49 48 47 45 43 41 39 38 38 37 36 36 35 35 34 34 34 33 32 32 30 29 28 26 25 24 22 22 21 20 19 19 18 18 18 18
60 60 59 57 56 56 56 56 55 56 54 52 53 52 50 49 47 44 42 41 39 38 37 37 36 35 35 35 34 34 34 33 32 32 30 28 27 26 24 23 23 22 21 20 19 19 19 19 19
58 58 57 57 57 57 58 59 57 56 55 54 54 53 52 50 49 46 44 43 41 40 38 37 36 35 35 35 35 34 34 33 33 32 31 29 28 27 25 24 24 22 21 21 20 20 20 20 20
55 56 57 57 57 57 59 59 60 57 56 57 56 55 54 53 51 49 47 45 43 41 39 38 37 36 35 35 34 34 34 33 33 33 32 30 29 28 26 26 25 23 22 21 21 21 21 21 22
52 55 56 57 56 56 57 60 59 55 57 58 58 57 56 55 53 51 49 46 44 42 41 40 38 37 36 35 34 34 34 34 33 33 32 31 30 28 27 27 26 24 23 23 22 22 22 23 23
50 53 55 54 54 54 58 60 55 56 58 59 59 59 58 56 55 53 50 48 46 45 43 42 40 39 37 36 35 34 34 34 34 33 32 31 30 29 28 28 27 25 24 24 23 23 24 24 25
47 50 51 51 53 54 58 58 54 56 59 60 60 60 59 58 57 55 53 50 48 47 45 44 42 40 39 37 36 35 35 35 34 34 33 32 31 30 29 28 27 26 25 25 25 25 25 26 26
40 43 47 49 50 53 57 57 55 56 59 61 61 61 61 60 58 56 54 52 50 48 47 46 44 42 41 39 38 36 36 35 35 34 33 32 32 30 30 29 28 27 26 26 26 26 27 27 27
38 40 43 44 47 51 55 56 56 57 59 61 62 63 63 60 58 57 56 54 53 51 49 47 46 44 42 41 39 37 36 36 35 34 34 33 32 31 30 29 28 27 27 27 27 27 28 28 28
38 40 40 41 44 49 54 56 56 57 58 60 61 63 63 62 60 59 57 56 55 53 50 49 47 45 43 41 39 38 38 37 36 35 34 33 32 31 31 30 29 28 28 28 28 28 28 29 29
34 37 38 39 41 46 51 55 55 56 58 59 60 62 64 63 61 59 58 56 55 54 52 50 48 46 44 42 41 41 40 38 37 35 34 34 33 32 31 30 30 30 29 29 29 29 30 30 31
33 33 35 37 39 43 47 53 54 54 56 59 60 61 63 62 61 60 59 57 56 55 53 51 49 47 45 44 43 41 39 37 36 36 35 35 34 33 32 31 31 31 31 31 31 31 31 31 31
31 32 33 35 37 41 44 49 52 53 54 57 58 59 60 61 61 60 60 58 56 55 54 52 50 49 47 45 43 41 40 38 37 37 36 35 35 34 33 33 33 32 32 32 32 31 32 32 32
29 30 32 34 36 40 40 45 48 50 50 52 55 57 58 59 60 59 59 59 57 56 56 53 52 50 48 46 44 42 40 39 38 37 37 36 35 35 34 34 34 33 33 33 32 32 32 33 33
28 29 29 32 36 38 38 42 43 43 45 48 52 55 56 57 58 59 59 59 58 57 56 55 53 51 49 47 46 43 41 40 39 37 37 36 35 34 34 34 34 34 34 34 33 33 33 33 34
24 27 29 31 33 34 36 40 38 39 42 46 49 53 56 57 58 59 59 58 58 57 57 56 53 51 49 48 46 45 43 41 39 38 38 37 35 35 35 35 35 35 34 34 33 33 33 34 35
21 24 25 27 28 30 33 36 36 37 40 44 47 50 54 56 57 58 59 58 58 57 56 55 54 52 50 48 46 46 44 42 40 39 38 37 36 36 36 36 35 35 34 34 34 34 34 35 35
21 22 24 25 26 27 28 31 32 34 35 41 46 48 50 53 56 57 58 58 58 57 56 55 54 53 51 49 46 45 44 43 41 40 39 37 36 36 36 36 36 36 35 35 35 35 36 36 36
21 22 24 26 27 27 28 29 29 31 34 37 42 46 47 49 52 55 57 58 57 57 57 56 55 53 52 50 48 46 44 43 42 41 39 38 36 36 35 35 35 36 36 36 36 36 36 36 36
21 23 25 27 29 30 29 28 28 30 33 36 39 44 46 47 49 51 53 55 56 55 55 55 54 54 52 51 50 48 46 45 43 41 40 39 38 37 37 36 36 36 36 36 36 36 36 36 36
Wind_Direction
260 258 256 255 253 252 251 250 248 245 243 241 239 238 237 237 236 236 236 233 231 229 229 229 228 227 227 228 228 229 229 229 229 231 233 235 238 241 246 249 255 262 269 274 280 283 285 289 294
260 258 255 254 253 252 250 249 247 245 243 240 239 238 237 236 236 236 235 234 232 230 228 228 227 227 228 229 229 230 230 230 229 231 233 235 238 242 245 249 255 261 267 272 277 280 283 288 293
259 257 255 253 252 252 251 248 246 243 242 241 240 239 238 237 235 235 234 234 231 230 228 227 227 227 227 228 230 231 231 230 230 231 233 235 238 242 244 249 254 259 264 269 275 277 281 286 292
258 256 255 253 252 252 249 246 244 243 242 241 240 239 238 236 235 234 232 232 230 229 228 227 227 227 227 228 230 231 231 230 229 231 233 235 237 240 244 248 252 257 261 267 272 275 279 283 290
257 255 254 254 252 250 248 245 243 242 241 241 240 239 238 236 234 233 232 230 229 228 227 227 227 227 228 228 229 230 230 230 230 231 233 234 236 239 242 247 251 255 259 265 270 274 277 281 288
257 255 254 254 252 248 246 243 242 241 240 239 239 238 237 235 233 232 231 229 228 227 227 226 227 228 229 228 229 229 229 229 230 230 232 233 235 237 241 245 249 253 257 263 269 272 275 280 286
256 255 254 253 250 246 244 242 241 239 238 238 238 236 234 233 231 230 230 229 227 227 226 226 227 228 229 229 229 229 228 228 229 229 230 232 234 237 240 244 248 252 256 262 267 269 274 279 285
255 254 252 251 249 245 242 241 239 238 236 235 235 235 233 231 230 229 228 229 228 227 226 226 227 228 228 229 229 229 227 227 227 228 229 231 233 236 239 243 247 251 256 261 265 267 272 278 285
253 252 251 250 249 245 241 239 237 236 234 232 233 233 232 229 228 227 227 228 228 228 227 226 227 227 227 228 229 228 226 226 226 227 229 230 233 236 239 243 247 251 255 259 263 266 271 278 284
252 252 251 250 247 243 239 237 234 233 232 231 231 231 230 229 227 225 226 227 227 228 228 227 227 227 227 227 228 227 226 226 226 227 229 230 232 235 239 244 247 250 254 258 262 265 271 277 283
252 252 250 247 244 241 238 235 233 232 231 230 229 229 229 228 226 224 224 225 225 226 226 226 226 227 227 227 227 226 225 225 226 227 227 229 232 235 239 242 246 249 253 257 261 266 272 278 284
251 250 247 245 241 239 236 233 231 231 230 229 228 228 227 227 225 224 223 223 224 224 225 225 225 225 225 225 225 225 224 224 225 226 227 228 232 235 238 242 245 248 251 256 260 266 272 278 284
250 247 244 242 239 237 235 233 230 228 228 227 227 227 226 226 225 223 222 222 222 223 223 224 224 224 224 224 224 224 223 224 225 226 227 228 231 234 238 242 244 247 250 254 260 267 272 278 284
248 245 242 239 237 236 234 232 230 227 226 226 225 225 225 224 224 223 222 221 221 222 223 223 224 224 223 223 223 223 223 224 225 226 227 229 231 235 238 241 243 246 249 254 260 267 274 279 284
245 243 240 237 236 234 234 232 229 226 225 225 224 224 224 224 223 222 222 221 221 221 222 223 224 224 223 223 223 223 223 224 225 225 226 228 232 235 239 240 243 245 249 255 261 268 275 280 284
243 241 239 235 234 233 233 232 227 225 224 224 223 223 223 222 222 222 221 221 221 221 221 221 223 224 224 224 223 223 223 224 224 225 226 229 232 236 239 241 243 245 250 256 262 269 276 280 283
242 241 238 234 232 232 233 231 225 225 224 222 222 222 222 221 221 221 221 220 221 221 221 221 222 223 224 224 223 223 223 224 224 225 228 230 233 237 239 241 243 246 251 258 264 270 276 279 283
244 242 238 234 232 232 232 230 224 224 223 222 221 220 221 220 221 221 221 220 221 221 221 221 221 223 224 224 224 224 224 225 225 227 229 231 234 237 239 241 243 248 253 259 265 271 275 279 283
241 240 237 234 232 233 232 229 224 223 222 221 220 219 219 220 220 220 220 220 221 220 221 221 221 222 224 224 225 225 226 226 227 228 230 232 234 236 239 242 244 249 254 260 265 271 275 279 283
241 239 237 235 233 234 232 229 225 224 223 221 220 220 218 218 218 219 220 220 220 220 221 221 222 222 224 225 225 226 226 226 227 228 229 232 234 237 240 243 246 250 255 261 266 271 274 278 282
242 239 238 237 235 235 235 231 226 224 224 221 220 219 218 218 217 218 218 219 220 220 220 221 222 222 223 225 225 226 226 226 227 229 230 233 235 238 241 244 247 252 257 261 266 272 275 278 282
240 238 238 238 238 235 234 234 226 224 223 222 219 218 218 218 217 217 218 219 220 220 221 221 222 223 223 224 225 226 227 228 229 230 232 234 236 239 242 245 249 253 258 262 267 272 275 278 281
239 238 238 237 238 236 233 237 227 225 223 221 220 219 218 218 218 217 218 218 219 220 221 222 222 222 223 224 224 226 227 228 228 230 232 234 236 240 243 247 250 254 257 262 268 272 275 278 280
238 239 239 238 239 238 232 237 232 226 223 220 220 220 219 219 218 218 218 218 219 220 221 221 222 222 223 224 224 225 227 229 230 232 234 236 238 241 244 247 251 254 258 262 267 272 275 276 279
239 240 241 239 239 239 234 237 233 226 223 222 221 220 219 219 219 218 218 218 219 220 220 221 222 222 223 224 224 225 228 230 232 234 236 238 240 242 245 247 251 255 258 262 267 272 274 276 278
239 238 239 242 242 240 237 236 231 227 223 221 220 220 219 218 218 217 217 218 219 220 220 221 222 223 223 224 224 225 228 230 232 235 237 239 241 243 245 248 251 255 258 262 267 270 272 274 278
241 238 239 241 241 242 239 235 231 227 224 221 220 219 218 218 217 217 217 217 218 219 220 221 222 223 223 224 225 226 228 230 233 235 238 240 242 244 247 250 252 254 257 262 266 269 271 274 278
244 241 238 236 237 241 240 235 230 225 225 222 220 217 216 217 217 217 217 217 218 219 220 221 221 223 224 224 225 226 228 230 233 235 237 240 242 245 248 251 253 254 258 262 266 269 271 274 278
241 239 238 236 236 239 241 236 230 228 224 221 219 217 215 216 217 217 218 218 218 219 220 220 221 222 223 224 225 226 227 230 233 235 237 240 242 245 249 252 254 256 258 262 265 268 270 274 277
239 236 236 236 236 238 241 235 231 227 222 220 218 216 215 214 214 216 217 218 218 219 220 221 221 222 223 224 226 226 227 228 231 234 238 240 243 247 250 252 254 256 258 261 264 266 270 274 276
Height
5802 5803 5804 5805 5807 5808 5812 5817 5819 5819 5820 5821 5822 5823 5825 5827 5830 5834 5836 5838 5841 5844 5846 5849 5851 5854 5856 5859 5861 5863 5865 5867 5869 5870 5872 5874 5875 5876 5877 5878 5878 5878 5878 5878 5878 5878 5878 5877 5877
5792 5794 5795 5795 5797 5800 5806 5811 5812 5813 5813 5814 5815 5817 5819 5821 5824 5827 5830 5832 5836 5839 5842 5844 5847 5850 5852 5855 5857 5860 5862 5864 5866 5868 5869 5871 5873 5874 5875 5876 5876 5876 5876 5876 5876 5876 5876 5876 5875
5782 5783 5784 5785 5787 5793 5800 5804 5804 5805 5805 5807 5809 5811 5813 5816 5818 5822 5825 5827 5831 5834 5837 5840 5842 5845 5848 5851 5854 5856 5858 5860 5863 5865 5867 5868 5870 5872 5873 5873 5874 5874 5874 5874 5874 5874 5874 5874 5873
5771 5771 5772 5774 5778 5787 5791 5794 5795 5796 5798 5799 5801 5804 5807 5810 5813 5816 5819 5821 5825 5828 5831 5835 5838 5841 5844 5847 5849 5852 5855 5857 5859 5861 5863 5865 5867 5869 5870 5871 5871 5872 5872 5872 5872 5872 5872 5872 5871
5758 5758 5759 5762 5769 5778 5781 5784 5785 5787 5789 5792 5794 5797 5799 5803 5806 5809 5812 5815 5819 5822 5826 5829 5832 5836 5839 5842 5845 5848 5851 5853 5856 5858 5860 5862 5864 5866 5867 5868 5869 5869 5869 5870 5869 5870 5869 5869 5869
5745 5745 5747 5751 5760 5767 5771 5774 5775 5777 5780 5783 5786 5789 5792 5796 5799 5803 5806 5809 5812 5816 5820 5823 5827 5830 5834 5837 5840 5843 5846 5849 5852 5854 5856 5859 5861 5862 5864 5865 5866 5866 5867 5867 5867 5867 5867 5867 5866
5732 5731 5734 5741 5747 5754 5761 5762 5765 5768 5771 5775 5777 5780 5784 5788 5792 5796 5799 5802 5806 5810 5814 5817 5821 5825 5828 5832 5835 5838 5841 5845 5848 5850 5853 5855 5857 5859 5860 5861 5862 5863 5864 5864 5864 5864 5864 5864 5863
5716 5716 5719 5726 5734 5743 5749 5750 5753 5756 5761 5765 5767 5771 5777 5781 5784 5788 5792 5796 5799 5803 5808 5812 5815 5819 5823 5826 5830 5833 5836 5840 5843 5846 5849 5851 5853 5855 5857 5858 5859 5860 5860 5861 5861 5861 5861 5861 5860
5698 5699 5704 5716 5723 5731 5735 5737 5741 5744 5748 5753 5757 5762 5768 5771 5776 5781 5785 5790 5793 5797 5801 5806 5809 5813 5817 5821 5824 5828 5831 5835 5838 5841 5844 5847 5849 5851 5853 5854 5855 5856 5857 5857 5857 5858 5858 5858 5857
5680 5683 5695 5706 5710 5715 5719 5723 5728 5731 5736 5742 5748 5752 5757 5762 5768 5774 5779 5783 5787 5791 5795 5799 5803 5807 5811 5815 5819 5822 5826 5830 5833 5836 5839 5842 5845 5847 5849 5850 5851 5852 5853 5854 5854 5854 5854 5854 5854
5665 5671 5682 5688 5693 5697 5702 5708 5713 5718 5725 5732 5738 5742 5747 5752 5759 5766 5771 5776 5780 5784 5788 5792 5797 5801 5805 5809 5813 5817 5821 5824 5828 5831 5834 5838 5840 5843 5845 5846 5847 5848 5849 5850 5850 5850 5850 5850 5850
5650 5657 5664 5671 5676 5680 5687 5693 5698 5705 5715 5721 5725 5731 5737 5743 5750 5757 5763 5768 5773 5777 5782 5786 5790 5794 5799 5803 5807 5811 5815 5819 5823 5826 5829 5833 5835 5838 5840 5841 5843 5844 5845 5846 5846 5846 5846 5846 5846
5634 5642 5648 5654 5659 5665 5670 5677 5684 5693 5704 5708 5713 5720 5727 5734 5741 5747 5754 5759 5765 5770 5775 5779 5784 5788 5792 5797 5801 5805 5809 5813 5817 5821 5824 5827 5830 5833 5835 5837 5838 5840 5841 5841 5842 5842 5842 5842 5841
5621 5626 5631 5637 5643 5650 5655 5662 5669 5683 5690 5695 5701 5709 5716 5723 5731 5737 5744 5751 5757 5763 5768 5773 5777 5781 5786 5790 5795 5799 5803 5807 5811 5815 5819 5822 5825 5827 5830 5832 5833 5835 5836 5837 5837 5838 5838 5837 5837
5605 5609 5615 5622 5629 5636 5640 5646 5658 5672 5675 5682 5689 5697 5705 5712 5720 5728 5736 5743 5749 5755 5760 5765 5770 5775 5780 5784 5789 5793 5797 5801 5806 5809 5813 5816 5819 5822 5824 5827 5828 5830 5831 5832 5833 5833 5833 5832 5832
5590 5593 5599 5611 5616 5622 5625 5632 5650 5656 5660 5669 5677 5685 5693 5701 5710 5718 5726 5734 5740 5746 5752 5758 5763 5768 5773 5778 5782 5787 5791 5796 5800 5804 5807 5811 5814 5817 5819 5821 5823 5825 5826 5827 5828 5828 5828 5827 5826
5576 5580 5588 5598 5603 5607 5609 5620 5636 5640 5646 5655 5664 5672 5681 5689 5698 5708 5716 5724 5731 5738 5744 5750 5756 5762 5767 5772 5776 5781 5785 5789 5794 5798 5802 5805 5808 5811 5813 5816 5818 5819 5821 5822 5823 5823 5822 5822 5821
5567 5571 5576 5583 5590 5593 5596 5607 5619 5625 5631 5640 5650 5659 5668 5678 5688 5697 5706 5714 5721 5729 5735 5742 5748 5754 5759 5764 5769 5774 5779 5783 5787 5792 5795 5799 5802 5805 5808 5810 5812 5814 5815 5816 5817 5817 5817 5816 5815
5555 5558 5563 5571 5577 5579 5584 5593 5603 5610 5617 5626 5636 5645 5655 5666 5677 5686 5694 5703 5711 5719 5726 5733 5740 5746 5752 5758 5763 5768 5773 5777 5781 5786 5789 5793 5796 5799 5802 5804 5806 5808 5810 5810 5811 5811 5811 5810 5809
5544 5547 5553 5559 5564 5566 5572 5579 5589 5596 5604 5614 5624 5633 5644 5654 5664 5674 5683 5692 5700 5709 5717 5725 5732 5738 5745 5751 5757 5762 5766 5770 5774 5778 5782 5786 5790 5793 5796 5798 5800 5802 5803 5804 5805 5805 5804 5804 5803
5536 5540 5545 5549 5553 5555 5560 5566 5576 5585 5593 5602 5611 5621 5632 5642 5653 5663 5673 5682 5691 5699 5708 5716 5723 5731 5737 5743 5748 5753 5758 5763 5768 5772 5776 5780 5783 5786 5789 5792 5794 5795 5797 5798 5798 5798 5798 5797 5796
5528 5533 5535 5538 5541 5545 5550 5553 5566 5574 5581 5591 5601 5611 5621 5632 5642 5652 5662 5672 5681 5691 5699 5707 5715 5722 5729 5734 5740 5746 5752 5758 5762 5766 5770 5773 5777 5780 5783 5785 5787 5789 5790 5791 5791 5791 5791 5790 5789
5521 5524 5527 5529 5531 5534 5540 5543 5555 5563 5571 5582 5593 5603 5613 5623 5633 5643 5652 5662 5672 5681 5689 5697 5705 5712 5720 5726 5733 5739 5745 5750 5754 5758 5762 5766 5769 5773 5776 5778 5780 5782 5783 5784 5784 5784 5784 5783 5782
5514 5517 5519 5521 5523 5525 5533 5536 5544 5555 5566 5577 5586 5595 5604 5614 5623 5633 5643 5652 5660 5669 5678 5687 5695 5703 5710 5717 5724 5731 5737 5742 5747 5751 5755 5758 5762 5765 5768 5771 5773 5774 5776 5777 5777 5777 5776 5776 5775
5508 5510 5512 5514 5515 5519 5526 5528 5537 5550 5559 5568 5576 5584 5594 5603 5613 5622 5631 5640 5650 5659 5668 5677 5685 5694 5702 5709 5716 5723 5728 5734 5739 5743 5747 5751 5755 5758 5761 5763 5765 5767 5768 5769 5769 5769 5769 5768 5767
5502 5504 5507 5509 5511 5515 5519 5522 5534 5542 5549 5556 5564 5573 5581 5590 5600 5610 5621 5631 5640 5649 5659 5668 5676 5685 5693 5700 5708 5714 5720 5725 5731 5736 5740 5743 5747 5750 5753 5755 5757 5759 5760 5761 5762 5762 5761 5760 5760
5496 5498 5501 5503 5505 5508 5511 5518 5527 5533 5539 5546 5555 5563 5571 5581 5590 5600 5611 5620 5630 5639 5649 5659 5667 5676 5684 5692 5699 5705 5711 5717 5722 5727 5731 5735 5739 5742 5744 5747 5749 5751 5752 5753 5754 5754 5753 5753 5752
5492 5494 5496 5498 5499 5502 5507 5512 5520 5526 5532 5539 5546 5553 5562 5572 5581 5591 5600 5610 5620 5630 5639 5648 5657 5666 5674 5682 5689 5696 5702 5708 5714 5718 5723 5728 5731 5733 5736 5738 5740 5742 5744 5745 5745 5746 5745 5745 5744
5488 5489 5490 5492 5495 5498 5501 5509 5514 5519 5525 5531 5538 5546 5554 5562 5571 5581 5591 5600 5610 5619 5628 5637 5647 5656 5664 5672 5680 5686 5693 5699 5704 5710 5715 5719 5722 5725 5728 5730 5732 5734 5735 5736 5737 5737 5737 5737 5736
5483 5484 5486 5488 5490 5492 5495 5503 5507 5511 5516 5522 5530 5537 5545 5554 5562 5571 5581 5590 5599 5608 5618 5627 5637 5646 5654 5662 5670 5677 5683 5689 5695 5701 5706 5710 5714 5717 5719 5722 5724 5725 5727 5728 5729 5729 5729 5729 5728